ROMMA est une association bénévole à but non lucratif. Votre soutien est indispensable : ADHERER à ROMMA ou FAIRE un DON

Chambon - (38, Isère)

Oisans (2460 m)   Longitude: 06° 10' 42" E   Latitude: 45° 01' 32" N Station partenaire n°803
 

Détail journalier du     <<     >>

Température Humidité Vent Dir Rafale Dir. rafale Neige 1 Neige 2
Heure (°C) (%) (km/h) (km/h) (cm) (cm)
01:00 -2.87540OSO90OSO164216
02:00 -3.89343SO77OSO164217
03:00 -4.29637SO71SO166218
04:00 -6.59627SO55SO168221
05:00 -7.49624SO47SO170227
06:00 -8.19617SO38SO169227
07:00 -9.29515SO27SO172226
08:00 -10.39416OSO25OSO173225
09:00 -10.59315SO26SO175224
10:00 -9.9928SSO21SO174224
11:00 -8.8906SSO13SSO174223
12:00 -9.6929SSO23OSO174223
13:00 -8.5874S27SO174224
14:00 -9.3899S28OSO174224
15:00 -9.08712OSO35OSO174224
16:00 -8.98913SO30OSO174223
17:00 -10.29316SO33OSO173223
18:00 -10.39211OSO31OSO174223
19:00 -10.39411OSO21OSO173223
20:00 -10.2948OSO16O173223
21:00 -10.5947NNE15O173223
22:00 -10.69411NNE22ENE173224
23:00 -10.6946NE24NE173224
minuit -10.1951ENE20ESE174224

Graphique du 13-03-2019

 

Serveur OMMA